Tracking 30995 objects as of 7-Jul-2025
HD Live streaming from Space Station
objects crossing your sky now

SJ-23

Track SJ-23 now!


NORAD ID: 55131
Int'l Code: 2023-002A
Perigee: 35,845.0 km
Apogee: 35,855.9 km
Inclination: 2.8 °
Period: 1,439.0 minutes
Semi major axis: 42221 km
RCS: Unknown
Launch date: January 8, 2023
Source: People's Republic of China (PRC)
Launch site: Wenchang Satellite Launch Center (WSC)
Your satellite tracking list
STARLINK-4354
Track 1 satellite(s)




NASA's NSSDC Master Catalog

Two Line Element Set (TLE):
1 55131U 23002A   25187.63486648 -.00000187  00000-0  00000-0 0  9997
2 55131   2.8270  82.7840 0001300  98.6456  63.7060  1.00069866  9048
Source of the keplerian elements: AFSPC